Charleston, SC

1:45 PM EDT on April 21, 2018 (GMT -0400)
Charleston Air Force Base-International

Weather History for KCHS - October, 2014

Change the Weather History Date:

Friday, October 17, 2014

  Actual Average Record
Temperature  
Mean Temperature 66 °F 66 °F  
Max Temperature 79 °F 77 °F 91 °F (1972)
Min Temperature 53 °F 56 °F 35 °F (1939)
Degree Days  
Heating Degree Days 0 2  
Month to date heating degree days 6 22  
Since 1 July heating degree days 6 25  
Cooling Degree Days 1 4  
Month to date cooling degree days 141 90  
Year to date cooling degree days 2709 2228  
Growing Degree Days 16 (Base 50)    
Moisture  
Dew Point 54 °F    
Average Humidity 66    
Maximum Humidity 89    
Minimum Humidity 42    
Precipitation  
Precipitation 0.00 in 0.13 in 3.72 in (1999)
Month to date precipitation 0.86 2.36  
Year to date precipitation 44.85 44.10  
Sea Level Pressure  
Sea Level Pressure 29.92 in    
Wind  
Wind Speed 5 mph (WSW)    
Max Wind Speed 12 mph    
Max Gust Speed 15 mph    
Visibility 10 miles    
Events      
T = Trace of Precipitation, MM = Missing Value Source: NWS Daily Summary

Daily Weather History Graph

Daily Weather History Graph

Search for Another Location

Airport or City:

Astronomy

Oct. 17, 2014 Rise Set
Actual Time 7:25 AM EDT 6:44 PM EDT
Civil Twilight 7:00 AM EDT 7:09 PM EDT
Nautical Twilight 6:32 AM EDT 7:38 PM EDT
Astronomical Twilight 6:03 AM EDT 8:06 PM EDT
Moon 1:46 AM EDT (10/17) 3:14 PM EDT (10/17)
Length of Visible Light 12h 08m
Length of Day
11h 18m
Waning Crescent, 33% of the Moon is Illuminated
Oct 17
Waning Crescent
Oct 23
New
Oct 30
First Quarter
Nov 6
Full
Nov 14
Last Quarter

Hourly Weather History & Observations

Time (EDT) Temp. Dew Point Humidity Pressure Visibility Wind Dir Wind Speed Gust Speed Precip Events Conditions
12:56 AM 59.0 °F 52.0 °F 78% 29.92 in 10.0 mi WNW 5.8 mph - N/A   Clear
1:20 AM - - N/A% - - Variable 3.5 mph - N/A   Partly Cloudy
1:56 AM 57.9 °F 51.1 °F 78% 29.91 in 10.0 mi NW 5.8 mph - N/A   Clear
2:56 AM 57.0 °F 51.1 °F 81% 29.91 in 10.0 mi NW 3.5 mph - N/A   Clear
3:56 AM 55.9 °F 51.1 °F 84% 29.91 in 10.0 mi WNW 3.5 mph - N/A   Clear
4:56 AM 55.0 °F 50.0 °F 83% 29.92 in 10.0 mi Calm Calm - N/A   Clear
5:56 AM 54.0 °F 50.0 °F 86% 29.93 in 10.0 mi Calm Calm - N/A   Clear
6:56 AM 54.0 °F 50.0 °F 86% 29.95 in 10.0 mi West 3.5 mph - N/A   Clear
7:56 AM 54.0 °F 50.0 °F 86% 29.97 in 10.0 mi West 3.5 mph - N/A   Clear
8:56 AM 59.0 °F 52.0 °F 78% 29.98 in 10.0 mi WNW 3.5 mph - N/A   Clear
9:56 AM 63.0 °F 54.0 °F 72% 29.99 in 10.0 mi Calm Calm - N/A   Clear
10:56 AM 66.9 °F 55.0 °F 66% 29.98 in 10.0 mi Calm Calm - N/A   Clear
11:56 AM 72.0 °F 53.1 °F 51% 29.97 in 10.0 mi WSW 5.8 mph - N/A   Clear
12:56 PM 73.9 °F 53.1 °F 48% 29.95 in 10.0 mi WSW 5.8 mph - N/A   Clear
1:56 PM 75.9 °F 51.1 °F 42% 29.92 in 10.0 mi WSW 5.8 mph - N/A   Clear
2:56 PM 77.0 °F 53.1 °F 43% 29.90 in 10.0 mi SW 6.9 mph - N/A   Clear
3:56 PM 78.1 °F 54.0 °F 43% 29.89 in 10.0 mi WSW 5.8 mph - N/A   Clear
4:56 PM 78.1 °F 54.0 °F 43% 29.88 in 10.0 mi West 8.1 mph - N/A   Clear
5:56 PM 75.9 °F 54.0 °F 46% 29.89 in 10.0 mi West 8.1 mph - N/A   Clear
6:56 PM 71.1 °F 57.0 °F 61% 29.89 in 10.0 mi SW 5.8 mph - N/A   Clear
7:56 PM 64.0 °F 57.9 °F 80% 29.89 in 10.0 mi SW 4.6 mph - N/A   Clear
8:56 PM 64.0 °F 57.0 °F 78% 29.90 in 10.0 mi SSW 5.8 mph - N/A   Clear
9:56 PM 63.0 °F 57.0 °F 81% 29.91 in 10.0 mi SSW 4.6 mph - N/A   Clear
10:56 PM 66.0 °F 59.0 °F 78% 29.91 in 10.0 mi SW 6.9 mph - N/A   Clear
11:56 PM 66.0 °F 57.9 °F 75% 29.90 in 10.0 mi SW 8.1 mph - N/A   Clear